TimeCDT,TemperatureF,Dew PointF,Humidity,Sea Level PressureIn,VisibilityMPH,Wind Direction,Wind SpeedMPH,Gust SpeedMPH,PrecipitationIn,Events,Conditions,WindDirDegrees,DateUTC
12:56 AM,66.0,55.9,70,30.04,10.0,South,3.5,-,N/A,,Clear,190,2013-05-16 05:56:00
1:56 AM,64.9,55.9,73,30.04,10.0,Calm,Calm,-,N/A,,Clear,0,2013-05-16 06:56:00
2:56 AM,64.9,55.9,73,30.04,10.0,Calm,Calm,-,N/A,,Clear,0,2013-05-16 07:56:00
3:56 AM,63.0,57.0,81,30.04,10.0,Calm,Calm,-,N/A,,Clear,0,2013-05-16 08:56:00
4:56 AM,61.0,55.9,83,30.05,10.0,Calm,Calm,-,N/A,,Clear,0,2013-05-16 09:56:00
5:56 AM,61.0,55.9,83,30.05,10.0,SSE,3.5,-,N/A,,Clear,150,2013-05-16 10:56:00
6:56 AM,62.1,55.9,80,30.07,10.0,Calm,Calm,-,N/A,,Clear,0,2013-05-16 11:56:00
7:56 AM,64.0,57.0,78,30.07,10.0,Calm,Calm,-,N/A,,Clear,0,2013-05-16 12:56:00
8:56 AM,66.9,57.9,73,30.09,10.0,Calm,Calm,-,N/A,,Clear,0,2013-05-16 13:56:00
9:56 AM,71.1,60.1,68,30.08,10.0,Calm,Calm,-,N/A,,Clear,0,2013-05-16 14:56:00
10:56 AM,75.9,64.0,67,30.07,10.0,South,5.8,-,N/A,,Scattered Clouds,170,2013-05-16 15:56:00
11:56 AM,77.0,63.0,62,30.06,10.0,South,8.1,-,N/A,,Mostly Cloudy,190,2013-05-16 16:56:00
12:09 PM,77.0,62.6,61,30.07,10.0,South,5.8,-,N/A,,Mostly Cloudy,190,2013-05-16 17:09:00
12:56 PM,80.1,61.0,52,30.05,10.0,WSW,9.2,20.7,N/A,,Scattered Clouds,240,2013-05-16 17:56:00
1:56 PM,81.0,62.1,52,30.03,10.0,South,5.8,-,N/A,,Scattered Clouds,190,2013-05-16 18:56:00
2:56 PM,82.0,61.0,49,30.01,10.0,South,6.9,-,N/A,,Mostly Cloudy,170,2013-05-16 19:56:00
3:56 PM,81.0,61.0,50,29.99,10.0,SSE,5.8,-,N/A,,Scattered Clouds,160,2013-05-16 20:56:00
4:56 PM,81.0,61.0,50,29.98,10.0,SSE,6.9,-,N/A,,Clear,150,2013-05-16 21:56:00
5:56 PM,81.0,60.1,49,29.96,10.0,South,8.1,-,N/A,,Clear,180,2013-05-16 22:56:00
6:56 PM,78.1,60.1,54,29.97,10.0,South,4.6,-,N/A,,Clear,170,2013-05-16 23:56:00
7:56 PM,73.9,61.0,64,29.99,10.0,SSE,4.6,-,N/A,,Scattered Clouds,160,2013-05-17 00:56:00
8:56 PM,73.0,62.1,68,30.01,10.0,South,4.6,-,N/A,,Clear,190,2013-05-17 01:56:00
9:56 PM,72.0,63.0,73,30.00,10.0,Variable,3.5,-,0.00,,Partly Cloudy,0,2013-05-17 02:56:00
10:56 PM,71.1,63.0,75,30.02,10.0,SSW,3.5,-,0.00,,Clear,210,2013-05-17 03:56:00
11:56 PM,69.1,64.0,84,30.02,10.0,South,3.5,-,N/A,,Clear,170,2013-05-17 04:56:00